IRIDIUM 155 (43573 NORAD) Tracking and Keplerian Element Data

This shows tracking and keplerian element data for the satellite.

Feedback or suggestion? Click here.




ElementValue
Catalog43573
NameIRIDIUM 155
Epoch Orbit417
Epoch Day235.32285044
Epoch Year2018
RAAN169.7926
Inclination86.4021
Eccentricity0.0001922
Argument of Perigee61.6419
Mean Anonmoly298.497
Mean Motion14.34218362
Decay Rate2E-07
L11 43573U 18061E 18235.32285044 .00000020 00000-0 18202-6 0 9996
L22 43573 86.4021 169.7926 0001922 61.6419 298.4970 14.34218362 4171

Live tracking and technical data element details for IRIDIUM 155 (NORAD 43573). IRIDIUM 155 can be tracked NOW for your location showing map with azimuth and elevation plus other details from your city location.

Track the satellite on the map from your city or location and see movement details for azimuth, elevation, latitude, longitude, range, height, and movement on the map or in text.







IsCatalogInMostPopularTable: catalog: 43573, numindb: 42
Update: records affected: 1



GetName: 43573 IRIDIUM 155

Hit Count: updated at: Tue, 13 Nov 2018 07:32:48 GMT